Regional Weather Roundup
Issued by NWS

Home | Current Version | Previous Version | Text Only | Print | Product List | Glossary Off
Versions: 1 2 3 4 5 6 7 8 9 10 11 12 13 14 15 16 17 18 19 20 21 22 23 24 25 26 27 28 29 30 31 32 33 34 35 36 37 38 39 40 41 42 43 44 45 46 47 48 49 50

000
ASUS43 KBIS 070910
RWRND

NORTH DAKOTA REGIONAL WEATHER ROUNDUP
NATIONAL WEATHER SERVICE BISMARCK ND
400 AM CDT TUE JUL 07 2015

NOTE: "FAIR" INDICATES FEW OR NO CLOUDS BELOW 12,000 FEET WITH NO
SIGNIFICANT WEATHER AND/OR OBSTRUCTIONS TO VISIBILITY.


NDZ001>003-009>011-017-071000-
NORTHWEST NORTH DAKOTA

CITY           SKY/WX    TMP DP  RH WIND       PRES   REMARKS
WILLISTON      CLEAR     55  50  83 CALM      30.16S
MINOT          CLEAR     50  44  80 SW6       30.17S
MINOT AFB      CLEAR     45  45 100 SW5       30.16S
$$

NDZ018>021-031>035-040>046-071000-
SOUTHWEST NORTH DAKOTA

CITY           SKY/WX    TMP DP  RH WIND       PRES   REMARKS
BISMARCK       CLEAR     46  45  96 CALM      30.20S FOG
DICKINSON      PTCLDY    50  47  89 SE8       30.17F FOG
GARRISON         N/A     51  48  89 CALM      30.18S
HETTINGER ARPT PTCLDY    52  49  89 E8        30.20S FOG
$$

NDZ004>008-012>016-024-026-027-054-071000-
NORTHEAST NORTH DAKOTA

CITY           SKY/WX    TMP DP  RH WIND       PRES   REMARKS
GRAND FORKS    CLEAR     44  42  93 CALM      30.17R
GRND FRKS AFB  CLEAR     44  43  94 W3        30.17S
DEVILS LAKE    CLEAR     54  45  71 S7        30.18S
$$

NDZ022-023-025-028>030-036>039-047>053-071000-
SOUTHEAST NORTH DAKOTA

CITY           SKY/WX    TMP DP  RH WIND       PRES   REMARKS
FARGO          CLEAR     46  42  86 CALM      30.18S
JAMESTOWN      CLEAR     50  46  86 CALM      30.20S
$$



USA.gov is the U.S. government's official web portal to all federal, state and local government web resources and services.